User: anonymous   Login
Location: Unspecified
(0.0000°N, 0.0000°E)
Time: 23:44:31
(UTC+00:00)
Language:

USA 176 - Orbit

View from above orbital plane
View from above orbital plane
View from above satellite
View from above satellite

Ground track
Ground track

The orbit data is extracted from the following two-line orbital elements,

1 28158U 04004A   15080.46437409 0.00000000  00000-0  00000-0 0    06
2 28158   6.4421  52.0761 0006780 220.8105 139.1489  1.00270000    08
Epoch (UTC): 21 March 2015 11:08:41
Eccentricity: 0.0006780
inclination: 6.4421°
perigee height: 35758 km
apogee height: 35815 km
right ascension of ascending node: 52.0761°
argument of perigee: 220.8105°
revolutions per day: 1.00270000
mean anomaly at epoch: 139.1489°
orbit number at epoch: 0

The dashed part of the orbit path shows where the satellite is in the earth's shadow,  

DLR